Year,Month,Day,Hour,Minute,Value (Times are PST for temperature in C)
2019,03,07,00,00,0.70
2019,03,07,00,01,0.70
2019,03,07,00,02,0.70
2019,03,07,00,03,0.60
2019,03,07,00,04,0.60
2019,03,07,00,05,0.60
2019,03,07,00,06,0.60
2019,03,07,00,07,0.70
2019,03,07,00,08,0.70
2019,03,07,00,09,0.70
2019,03,07,00,10,0.70
2019,03,07,00,11,0.80
2019,03,07,00,12,0.80
2019,03,07,00,13,0.80
2019,03,07,00,14,0.90
2019,03,07,00,15,0.90
2019,03,07,00,16,0.90
2019,03,07,00,17,0.90
2019,03,07,00,18,1.00
2019,03,07,00,19,1.10
2019,03,07,00,20,1.10
2019,03,07,00,21,1.20
2019,03,07,00,22,1.20
2019,03,07,00,23,1.30
2019,03,07,00,24,1.40
2019,03,07,00,25,1.50
2019,03,07,00,26,1.60
2019,03,07,00,27,1.80
2019,03,07,00,28,1.90
2019,03,07,00,29,2.00
2019,03,07,00,30,2.10
2019,03,07,00,31,2.20
2019,03,07,00,32,2.30
2019,03,07,00,33,2.40
2019,03,07,00,34,2.40
2019,03,07,00,35,2.50
2019,03,07,00,36,2.50
2019,03,07,00,37,2.50
2019,03,07,00,38,2.60
2019,03,07,00,39,2.60
2019,03,07,00,40,2.60
2019,03,07,00,41,2.60
2019,03,07,00,42,2.60
2019,03,07,00,43,2.60
2019,03,07,00,44,2.60
2019,03,07,00,45,2.70
2019,03,07,00,46,2.70
2019,03,07,00,47,2.70
2019,03,07,00,48,2.80
2019,03,07,00,49,2.80
2019,03,07,00,50,2.80
2019,03,07,00,51,2.80
2019,03,07,00,52,2.80
2019,03,07,00,53,2.80
2019,03,07,00,54,2.80
2019,03,07,00,55,2.90
2019,03,07,00,56,2.90
2019,03,07,00,57,2.90
2019,03,07,00,58,2.90
2019,03,07,00,59,2.90
2019,03,07,01,00,3.00
2019,03,07,01,01,3.00
2019,03,07,01,02,3.00
2019,03,07,01,03,3.10
2019,03,07,01,04,3.10
2019,03,07,01,05,3.10
2019,03,07,01,06,3.10
2019,03,07,01,07,3.10
2019,03,07,01,08,3.10
2019,03,07,01,09,3.10
2019,03,07,01,10,3.10
2019,03,07,01,11,3.10
2019,03,07,01,12,3.10
2019,03,07,01,13,3.10
2019,03,07,01,14,3.00
2019,03,07,01,15,3.00
2019,03,07,01,16,3.00
2019,03,07,01,17,3.00
2019,03,07,01,18,3.00
2019,03,07,01,19,3.00
2019,03,07,01,20,3.00
2019,03,07,01,21,2.90
2019,03,07,01,22,2.90
2019,03,07,01,23,2.90
2019,03,07,01,24,2.90
2019,03,07,01,25,2.90
2019,03,07,01,26,2.90
2019,03,07,01,27,2.80
2019,03,07,01,28,2.80
2019,03,07,01,29,2.80
2019,03,07,01,30,2.80
2019,03,07,01,31,2.80
2019,03,07,01,32,2.80
2019,03,07,01,33,2.80
2019,03,07,01,34,2.80
2019,03,07,01,35,2.80
2019,03,07,01,36,2.80
2019,03,07,01,37,2.80
2019,03,07,01,38,2.70
2019,03,07,01,39,2.70
2019,03,07,01,40,2.70
2019,03,07,01,41,2.70
2019,03,07,01,42,2.70
2019,03,07,01,43,2.70
2019,03,07,01,44,2.70
2019,03,07,01,45,2.60
2019,03,07,01,46,2.60
2019,03,07,01,47,2.60
2019,03,07,01,48,2.60
2019,03,07,01,49,2.60
2019,03,07,01,50,2.60
2019,03,07,01,51,2.60
2019,03,07,01,52,2.60
2019,03,07,01,53,2.60
2019,03,07,01,54,2.60
2019,03,07,01,55,2.60
2019,03,07,01,56,2.60
2019,03,07,01,57,2.60
2019,03,07,01,58,2.60
2019,03,07,01,59,2.60
2019,03,07,02,00,2.60
2019,03,07,02,01,2.60
2019,03,07,02,02,2.60
2019,03,07,02,03,2.50
2019,03,07,02,04,2.50
2019,03,07,02,05,2.40
2019,03,07,02,06,2.40
2019,03,07,02,07,2.40
2019,03,07,02,08,2.40
2019,03,07,02,09,2.30
2019,03,07,02,10,2.30
2019,03,07,02,11,2.30
2019,03,07,02,12,2.30
2019,03,07,02,13,2.30
2019,03,07,02,14,2.30
2019,03,07,02,15,2.30
2019,03,07,02,16,2.30
2019,03,07,02,17,2.30
2019,03,07,02,18,2.20
2019,03,07,02,19,2.30
2019,03,07,02,20,2.30
2019,03,07,02,21,2.30
2019,03,07,02,22,2.20
2019,03,07,02,23,2.20
2019,03,07,02,24,2.20
2019,03,07,02,25,2.20
2019,03,07,02,26,2.20
2019,03,07,02,27,2.20
2019,03,07,02,28,2.20
2019,03,07,02,29,2.20
2019,03,07,02,30,2.20
2019,03,07,02,31,2.10
2019,03,07,02,32,2.10
2019,03,07,02,33,2.10
2019,03,07,02,34,2.10
2019,03,07,02,35,2.10
2019,03,07,02,36,2.00
2019,03,07,02,37,2.00
2019,03,07,02,38,2.00
2019,03,07,02,39,2.00
2019,03,07,02,40,2.00
2019,03,07,02,41,2.10
2019,03,07,02,42,2.10
2019,03,07,02,43,2.10
2019,03,07,02,44,2.10
2019,03,07,02,45,2.00
2019,03,07,02,46,2.00
2019,03,07,02,47,2.00
2019,03,07,02,48,2.00
2019,03,07,02,49,2.00
2019,03,07,02,50,2.00
2019,03,07,02,51,2.00
2019,03,07,02,52,2.00
2019,03,07,02,53,2.00
2019,03,07,02,54,2.00
2019,03,07,02,55,2.10
2019,03,07,02,56,2.10
2019,03,07,02,57,2.10
2019,03,07,02,58,2.10
2019,03,07,02,59,2.10
2019,03,07,03,00,2.10
2019,03,07,03,01,2.10
2019,03,07,03,02,2.20
2019,03,07,03,03,2.20
2019,03,07,03,04,2.20
2019,03,07,03,05,2.20
2019,03,07,03,06,2.20
2019,03,07,03,07,2.20
2019,03,07,03,08,2.20
2019,03,07,03,09,2.20
2019,03,07,03,10,2.20
2019,03,07,03,11,2.20
2019,03,07,03,12,2.20
2019,03,07,03,13,2.30
2019,03,07,03,14,2.30
2019,03,07,03,15,2.30
2019,03,07,03,16,2.30
2019,03,07,03,17,2.30
2019,03,07,03,18,2.30
2019,03,07,03,19,2.30
2019,03,07,03,20,2.30
2019,03,07,03,21,2.30
2019,03,07,03,22,2.30
2019,03,07,03,23,2.30
2019,03,07,03,24,2.30
2019,03,07,03,25,2.30
2019,03,07,03,26,2.30
2019,03,07,03,27,2.30
2019,03,07,03,28,2.30
2019,03,07,03,29,2.30
2019,03,07,03,30,2.30
2019,03,07,03,31,2.30
2019,03,07,03,32,2.30
2019,03,07,03,33,2.30
2019,03,07,03,34,2.30
2019,03,07,03,35,2.20
2019,03,07,03,36,2.20
2019,03,07,03,37,2.20
2019,03,07,03,38,2.20
2019,03,07,03,39,2.20
2019,03,07,03,40,2.20
2019,03,07,03,41,2.20
2019,03,07,03,42,2.20
2019,03,07,03,43,2.10
2019,03,07,03,44,2.10
2019,03,07,03,45,2.10
2019,03,07,03,46,2.10
2019,03,07,03,47,2.10
2019,03,07,03,48,2.10
2019,03,07,03,49,2.10
2019,03,07,03,50,2.20
2019,03,07,03,51,2.20
2019,03,07,03,52,2.20
2019,03,07,03,53,2.20
2019,03,07,03,54,2.20
2019,03,07,03,55,2.10
2019,03,07,03,56,2.10
2019,03,07,03,57,2.10
2019,03,07,03,58,2.10
2019,03,07,03,59,2.00
2019,03,07,04,00,2.00
2019,03,07,04,01,1.90
2019,03,07,04,02,1.90
2019,03,07,04,03,1.90
2019,03,07,04,04,1.90
2019,03,07,04,05,1.80
2019,03,07,04,06,1.80
2019,03,07,04,07,1.80
2019,03,07,04,08,1.80
2019,03,07,04,09,1.80
2019,03,07,04,10,1.80
2019,03,07,04,11,1.80
2019,03,07,04,12,1.80
2019,03,07,04,13,1.80
2019,03,07,04,14,1.80
2019,03,07,04,15,1.80
2019,03,07,04,16,1.80
2019,03,07,04,17,1.80
2019,03,07,04,18,1.90
2019,03,07,04,19,1.90
2019,03,07,04,20,2.00
2019,03,07,04,21,2.00
2019,03,07,04,22,2.10
2019,03,07,04,23,2.10
2019,03,07,04,24,2.20
2019,03,07,04,25,2.20
2019,03,07,04,26,2.20
2019,03,07,04,27,2.20
2019,03,07,04,28,2.20
2019,03,07,04,29,2.20
2019,03,07,04,30,2.20
2019,03,07,04,31,2.30
2019,03,07,04,32,2.20
2019,03,07,04,33,2.20
2019,03,07,04,34,2.20
2019,03,07,04,35,2.20
2019,03,07,04,36,2.20
2019,03,07,04,37,2.20
2019,03,07,04,38,2.20
2019,03,07,04,39,2.20
2019,03,07,04,40,2.20
2019,03,07,04,41,2.20
2019,03,07,04,42,2.20
2019,03,07,04,43,2.20
2019,03,07,04,44,2.20
2019,03,07,04,45,2.20
2019,03,07,04,46,2.20
2019,03,07,04,47,2.20
2019,03,07,04,48,2.20
2019,03,07,04,49,2.20
2019,03,07,04,50,2.20
2019,03,07,04,51,2.20
2019,03,07,04,52,2.20
2019,03,07,04,53,2.20
2019,03,07,04,54,2.30
2019,03,07,04,55,2.30
2019,03,07,04,56,2.20
2019,03,07,04,57,2.20
2019,03,07,04,58,2.20
2019,03,07,04,59,2.20
2019,03,07,05,00,2.20
2019,03,07,05,01,2.20
2019,03,07,05,02,2.10
2019,03,07,05,03,2.10
2019,03,07,05,04,2.10
2019,03,07,05,05,2.10
2019,03,07,05,06,2.00
2019,03,07,05,07,2.00
2019,03,07,05,08,2.00
2019,03,07,05,09,2.00
2019,03,07,05,10,2.00
2019,03,07,05,11,1.90
2019,03,07,05,12,1.90
2019,03,07,05,13,1.90
2019,03,07,05,14,1.90
2019,03,07,05,15,1.80
2019,03,07,05,16,1.80
2019,03,07,05,17,1.80
2019,03,07,05,18,1.80
2019,03,07,05,19,1.80
2019,03,07,05,20,1.70
2019,03,07,05,21,1.70
2019,03,07,05,22,1.70
2019,03,07,05,23,1.70
2019,03,07,05,24,1.70
2019,03,07,05,25,1.70
2019,03,07,05,26,1.70
2019,03,07,05,27,1.70
2019,03,07,05,28,1.70
2019,03,07,05,29,1.70
2019,03,07,05,30,1.60
2019,03,07,05,31,1.60
2019,03,07,05,32,1.60
2019,03,07,05,33,1.60
2019,03,07,05,34,1.60
2019,03,07,05,35,1.60
2019,03,07,05,36,1.60
2019,03,07,05,37,1.60
2019,03,07,05,38,1.60
2019,03,07,05,39,1.50
2019,03,07,05,40,1.50
2019,03,07,05,41,1.50
2019,03,07,05,42,1.50
2019,03,07,05,43,1.50
2019,03,07,05,44,1.60
2019,03,07,05,45,1.60
2019,03,07,05,46,1.60
2019,03,07,05,47,1.60
2019,03,07,05,48,1.70
2019,03,07,05,49,1.70
2019,03,07,05,50,1.80
2019,03,07,05,51,1.90
2019,03,07,05,52,1.90
2019,03,07,05,53,1.90
2019,03,07,05,54,2.00
2019,03,07,05,55,2.00
2019,03,07,05,56,2.00
2019,03,07,05,57,2.10
2019,03,07,05,58,2.10
2019,03,07,05,59,2.10
2019,03,07,06,00,2.10
2019,03,07,06,01,2.10
2019,03,07,06,02,2.10
2019,03,07,06,03,2.10
2019,03,07,06,04,2.20
2019,03,07,06,05,2.20
2019,03,07,06,06,2.20
2019,03,07,06,07,2.20
2019,03,07,06,08,2.20
2019,03,07,06,09,2.20
2019,03,07,06,10,2.20
2019,03,07,06,11,2.20
2019,03,07,06,12,2.20
2019,03,07,06,13,2.10
2019,03,07,06,14,2.10
2019,03,07,06,15,2.00
2019,03,07,06,16,2.00
2019,03,07,06,17,1.90
2019,03,07,06,18,1.90
2019,03,07,06,19,1.90
2019,03,07,06,20,1.90
2019,03,07,06,21,1.80
2019,03,07,06,22,1.80
2019,03,07,06,23,1.80
2019,03,07,06,24,1.80
2019,03,07,06,25,1.80
2019,03,07,06,26,1.80
2019,03,07,06,27,1.80
2019,03,07,06,28,1.80
2019,03,07,06,29,1.80
2019,03,07,06,30,1.70
2019,03,07,06,31,1.70
2019,03,07,06,32,1.70
2019,03,07,06,33,1.70
2019,03,07,06,34,1.70
2019,03,07,06,35,1.70
2019,03,07,06,36,1.70
2019,03,07,06,37,1.70
2019,03,07,06,38,1.70
2019,03,07,06,39,1.70
2019,03,07,06,40,1.70
2019,03,07,06,41,1.60
2019,03,07,06,42,1.60
2019,03,07,06,43,1.60
2019,03,07,06,44,1.60
2019,03,07,06,45,1.60
2019,03,07,06,46,1.60
2019,03,07,06,47,1.60
2019,03,07,06,48,1.60
2019,03,07,06,49,1.60
2019,03,07,06,50,1.60
2019,03,07,06,51,1.70
2019,03,07,06,52,1.70
2019,03,07,06,53,1.70
2019,03,07,06,54,1.80
2019,03,07,06,55,1.80
2019,03,07,06,56,1.80
2019,03,07,06,57,1.90
2019,03,07,06,58,1.90
2019,03,07,06,59,1.90
2019,03,07,07,00,1.90
2019,03,07,07,01,1.90
2019,03,07,07,02,1.90
2019,03,07,07,03,1.90
2019,03,07,07,04,1.90
2019,03,07,07,05,1.90
2019,03,07,07,06,1.80
2019,03,07,07,07,1.80
2019,03,07,07,08,1.80
2019,03,07,07,09,1.80
2019,03,07,07,10,1.80
2019,03,07,07,11,1.80
2019,03,07,07,12,1.80
2019,03,07,07,13,1.70
2019,03,07,07,14,1.70
2019,03,07,07,15,1.70
2019,03,07,07,16,1.70
2019,03,07,07,17,1.70
2019,03,07,07,18,1.70
2019,03,07,07,19,1.70
2019,03,07,07,20,1.70
2019,03,07,07,21,1.70
2019,03,07,07,22,1.70
2019,03,07,07,23,1.70
2019,03,07,07,24,1.70
2019,03,07,07,25,1.70
2019,03,07,07,26,1.70
2019,03,07,07,27,1.70
2019,03,07,07,28,1.70
2019,03,07,07,29,1.80
2019,03,07,07,30,1.80
2019,03,07,07,31,1.80
2019,03,07,07,32,1.80
2019,03,07,07,33,1.80
2019,03,07,07,34,1.80
2019,03,07,07,35,1.80
2019,03,07,07,36,1.90
2019,03,07,07,37,1.90
2019,03,07,07,38,1.90
2019,03,07,07,39,1.90
2019,03,07,07,40,2.00
2019,03,07,07,41,2.00
2019,03,07,07,42,2.00
2019,03,07,07,43,2.00
2019,03,07,07,44,2.00
2019,03,07,07,45,2.10
2019,03,07,07,46,2.10
2019,03,07,07,47,2.10
2019,03,07,07,48,2.10
2019,03,07,07,49,2.10
2019,03,07,07,50,2.10
2019,03,07,07,51,2.00
2019,03,07,07,52,2.00
2019,03,07,07,53,2.00
2019,03,07,07,54,2.00
2019,03,07,07,55,2.00
2019,03,07,07,56,2.00
2019,03,07,07,57,1.90
2019,03,07,07,58,1.90
2019,03,07,07,59,1.90
2019,03,07,08,00,1.90
2019,03,07,08,01,1.90
2019,03,07,08,02,1.90
2019,03,07,08,03,1.90
2019,03,07,08,04,1.80
2019,03,07,08,05,1.80
2019,03,07,08,06,1.80
2019,03,07,08,07,1.70
2019,03,07,08,08,1.70
2019,03,07,08,09,1.70
2019,03,07,08,10,1.60
2019,03,07,08,11,1.60
2019,03,07,08,12,1.60
2019,03,07,08,13,1.60
2019,03,07,08,14,1.60
2019,03,07,08,15,1.50
2019,03,07,08,16,1.50
2019,03,07,08,17,1.50
2019,03,07,08,18,1.50
2019,03,07,08,19,1.50
2019,03,07,08,20,1.50
2019,03,07,08,21,1.50
2019,03,07,08,22,1.50
2019,03,07,08,23,1.50
2019,03,07,08,24,1.50
2019,03,07,08,25,1.50
2019,03,07,08,26,1.60
2019,03,07,08,27,1.60
2019,03,07,08,28,1.60
2019,03,07,08,29,1.60
2019,03,07,08,30,1.60
2019,03,07,08,31,1.60
2019,03,07,08,32,1.60
2019,03,07,08,33,1.60
2019,03,07,08,34,1.60
2019,03,07,08,35,1.70
2019,03,07,08,36,1.80
2019,03,07,08,37,1.80
2019,03,07,08,38,1.90
2019,03,07,08,39,2.00
2019,03,07,08,40,2.10
2019,03,07,08,41,2.20
2019,03,07,08,42,2.30
2019,03,07,08,43,2.40
2019,03,07,08,44,2.50
2019,03,07,08,45,2.50
2019,03,07,08,46,2.60
2019,03,07,08,47,2.70
2019,03,07,08,48,2.80
2019,03,07,08,49,2.80
2019,03,07,08,50,2.90
2019,03,07,08,51,2.90
2019,03,07,08,52,2.90
2019,03,07,08,53,2.90
2019,03,07,08,54,3.00
2019,03,07,08,55,3.00
2019,03,07,08,56,3.10
2019,03,07,08,57,3.10
2019,03,07,08,58,3.10
2019,03,07,08,59,3.10
2019,03,07,09,00,3.20
2019,03,07,09,01,3.20
2019,03,07,09,02,3.20
2019,03,07,09,03,3.20
2019,03,07,09,04,3.20
2019,03,07,09,05,3.20
2019,03,07,09,06,3.20
2019,03,07,09,07,3.20
2019,03,07,09,08,3.30
2019,03,07,09,09,3.20
2019,03,07,09,10,3.20
2019,03,07,09,11,3.30
2019,03,07,09,12,3.30
2019,03,07,09,13,3.30
2019,03,07,09,14,3.40
2019,03,07,09,15,3.40
2019,03,07,09,16,3.50
2019,03,07,09,17,3.50
2019,03,07,09,18,3.60
2019,03,07,09,19,3.60
2019,03,07,09,20,3.60
2019,03,07,09,21,3.70
2019,03,07,09,22,3.70
2019,03,07,09,23,3.70
2019,03,07,09,24,3.70
2019,03,07,09,25,3.70
2019,03,07,09,26,3.70
2019,03,07,09,27,3.70
2019,03,07,09,28,3.70
2019,03,07,09,29,3.70
2019,03,07,09,30,3.70
2019,03,07,09,31,3.70
2019,03,07,09,32,3.70
2019,03,07,09,33,3.70
2019,03,07,09,34,3.80
2019,03,07,09,35,3.90
2019,03,07,09,36,3.90
2019,03,07,09,37,4.00
2019,03,07,09,38,4.00
2019,03,07,09,39,4.10
2019,03,07,09,40,4.20
2019,03,07,09,41,4.20
2019,03,07,09,42,4.30
2019,03,07,09,43,4.40
2019,03,07,09,44,4.40
2019,03,07,09,45,4.40
2019,03,07,09,46,4.50
2019,03,07,09,47,4.50
2019,03,07,09,48,4.60
2019,03,07,09,49,4.60
2019,03,07,09,50,4.60
2019,03,07,09,51,4.60
2019,03,07,09,52,4.60
2019,03,07,09,53,4.70
2019,03,07,09,54,4.60
2019,03,07,09,55,4.60
2019,03,07,09,56,4.60
2019,03,07,09,57,4.60
2019,03,07,09,58,4.60
2019,03,07,09,59,4.60
2019,03,07,10,00,4.60
2019,03,07,10,01,4.60
2019,03,07,10,02,4.60
2019,03,07,10,03,4.60
2019,03,07,10,04,4.60
2019,03,07,10,05,4.60
2019,03,07,10,06,4.70
2019,03,07,10,07,4.70
2019,03,07,10,08,4.70
2019,03,07,10,09,4.60
2019,03,07,10,10,4.60
2019,03,07,10,11,4.60
2019,03,07,10,12,4.60
2019,03,07,10,13,4.60
2019,03,07,10,14,4.60
2019,03,07,10,15,4.60
2019,03,07,10,16,4.60
2019,03,07,10,17,4.60
2019,03,07,10,18,4.60
2019,03,07,10,19,4.60
2019,03,07,10,20,4.60
2019,03,07,10,21,4.60
2019,03,07,10,22,4.60
2019,03,07,10,23,4.60
2019,03,07,10,24,4.60
2019,03,07,10,25,4.60
2019,03,07,10,26,4.60
2019,03,07,10,27,4.60
2019,03,07,10,28,4.60
2019,03,07,10,29,4.60
2019,03,07,10,30,4.60
2019,03,07,10,31,4.60
2019,03,07,10,32,4.60
2019,03,07,10,33,4.70
2019,03,07,10,34,4.70
2019,03,07,10,35,4.70
2019,03,07,10,36,4.70
2019,03,07,10,37,4.70
2019,03,07,10,38,4.80
2019,03,07,10,39,4.80
2019,03,07,10,40,4.80
2019,03,07,10,41,4.70
2019,03,07,10,42,4.70
2019,03,07,10,43,4.70
2019,03,07,10,44,4.70
2019,03,07,10,45,4.70
2019,03,07,10,46,4.70
2019,03,07,10,47,4.60
2019,03,07,10,48,4.60
2019,03,07,10,49,4.60
2019,03,07,10,50,4.60
2019,03,07,10,51,4.60
2019,03,07,10,52,4.60
2019,03,07,10,53,4.60
2019,03,07,10,54,4.50
2019,03,07,10,55,4.50
2019,03,07,10,56,4.50
2019,03,07,10,57,4.40
2019,03,07,10,58,4.40
2019,03,07,10,59,4.50
2019,03,07,11,00,4.50
2019,03,07,11,01,4.50
2019,03,07,11,02,4.40
2019,03,07,11,03,4.40
2019,03,07,11,04,4.40
2019,03,07,11,05,4.40
2019,03,07,11,06,4.40
2019,03,07,11,07,4.40
2019,03,07,11,08,4.40
2019,03,07,11,09,4.40
2019,03,07,11,10,4.40
2019,03,07,11,11,4.50
2019,03,07,11,12,4.50
2019,03,07,11,13,4.50
2019,03,07,11,14,4.50
2019,03,07,11,15,4.50
2019,03,07,11,16,4.40
2019,03,07,11,17,4.50
2019,03,07,11,18,4.40
2019,03,07,11,19,4.50
2019,03,07,11,20,4.50
2019,03,07,11,21,4.50
2019,03,07,11,22,4.60
2019,03,07,11,23,4.60
2019,03,07,11,24,4.70
2019,03,07,11,25,4.70
2019,03,07,11,26,4.70
2019,03,07,11,27,4.70
2019,03,07,11,28,4.70
2019,03,07,11,29,4.70
2019,03,07,11,30,4.70
2019,03,07,11,31,4.70
2019,03,07,11,32,4.70
2019,03,07,11,33,4.70
2019,03,07,11,34,4.70
2019,03,07,11,35,4.70
2019,03,07,11,36,4.70
2019,03,07,11,37,4.70
2019,03,07,11,38,4.70
2019,03,07,11,39,4.80
2019,03,07,11,40,4.80
2019,03,07,11,41,4.80
2019,03,07,11,42,4.80
2019,03,07,11,43,4.80
2019,03,07,11,44,4.80
2019,03,07,11,45,4.80
2019,03,07,11,46,4.80
2019,03,07,11,47,4.80
2019,03,07,11,48,4.80
2019,03,07,11,49,4.80
2019,03,07,11,50,4.80
2019,03,07,11,51,4.80
2019,03,07,11,52,4.80
2019,03,07,11,53,4.80
2019,03,07,11,54,4.80
2019,03,07,11,55,4.80
2019,03,07,11,56,4.80
2019,03,07,11,57,4.80
2019,03,07,11,58,4.80
2019,03,07,11,59,4.80
2019,03,07,12,00,4.90
2019,03,07,12,01,4.90
2019,03,07,12,02,4.90
2019,03,07,12,03,4.90
2019,03,07,12,04,5.00
2019,03,07,12,05,5.00
2019,03,07,12,06,5.10
2019,03,07,12,07,5.10
2019,03,07,12,08,5.10
2019,03,07,12,09,5.20
2019,03,07,12,10,5.30
2019,03,07,12,11,5.40
2019,03,07,12,12,5.40
2019,03,07,12,13,5.50
2019,03,07,12,14,5.50
2019,03,07,12,15,5.50
2019,03,07,12,16,5.60
2019,03,07,12,17,5.60
2019,03,07,12,18,5.60
2019,03,07,12,19,5.60
2019,03,07,12,20,5.60
2019,03,07,12,21,5.60
2019,03,07,12,22,5.60
2019,03,07,12,23,5.60
2019,03,07,12,24,5.60
2019,03,07,12,25,5.60
2019,03,07,12,26,5.50
2019,03,07,12,27,5.60
2019,03,07,12,28,5.60
2019,03,07,12,29,5.50
2019,03,07,12,30,5.50
2019,03,07,12,31,5.50
2019,03,07,12,32,5.50
2019,03,07,12,33,5.50
2019,03,07,12,34,5.50
2019,03,07,12,35,5.50
2019,03,07,12,36,5.50
2019,03,07,12,37,5.50
2019,03,07,12,38,5.50
2019,03,07,12,39,5.50
2019,03,07,12,40,5.50
2019,03,07,12,41,5.50
2019,03,07,12,42,5.50
2019,03,07,12,43,5.50
2019,03,07,12,44,5.50
2019,03,07,12,45,5.60
2019,03,07,12,46,5.50
2019,03,07,12,47,5.60
2019,03,07,12,48,5.60
2019,03,07,12,49,5.60
2019,03,07,12,50,5.60
2019,03,07,12,51,5.60
2019,03,07,12,52,5.60
2019,03,07,12,53,5.60
2019,03,07,12,54,5.70
2019,03,07,12,55,5.70
2019,03,07,12,56,5.60
2019,03,07,12,57,5.60
2019,03,07,12,58,5.60
2019,03,07,12,59,5.60
2019,03,07,13,00,5.60
2019,03,07,13,01,5.60
2019,03,07,13,02,5.50
2019,03,07,13,03,5.50
2019,03,07,13,04,5.50
2019,03,07,13,05,5.60
2019,03,07,13,06,5.60
2019,03,07,13,07,5.60
2019,03,07,13,08,5.60
2019,03,07,13,09,5.60
2019,03,07,13,10,5.70
2019,03,07,13,11,5.70
2019,03,07,13,12,5.80
2019,03,07,13,13,5.80
2019,03,07,13,14,5.90
2019,03,07,13,15,5.90
2019,03,07,13,16,5.90
2019,03,07,13,17,5.90
2019,03,07,13,18,5.90
2019,03,07,13,19,5.80
2019,03,07,13,20,5.80
2019,03,07,13,21,5.80
2019,03,07,13,22,5.80
2019,03,07,13,23,5.80
2019,03,07,13,24,5.80
2019,03,07,13,25,5.80
2019,03,07,13,26,5.80
2019,03,07,13,27,5.70
2019,03,07,13,28,5.70
2019,03,07,13,29,5.70
2019,03,07,13,30,5.70
2019,03,07,13,31,5.70
2019,03,07,13,32,5.60
2019,03,07,13,33,5.60
2019,03,07,13,34,5.70
2019,03,07,13,35,5.70
2019,03,07,13,36,5.70
2019,03,07,13,37,5.80
2019,03,07,13,38,5.80
2019,03,07,13,39,5.80
2019,03,07,13,40,5.90
2019,03,07,13,41,5.90
2019,03,07,13,42,6.00
2019,03,07,13,43,6.00
2019,03,07,13,44,6.00
2019,03,07,13,45,6.00
2019,03,07,13,46,6.00
2019,03,07,13,47,6.00
2019,03,07,13,48,6.00
2019,03,07,13,49,5.90
2019,03,07,13,50,5.80
2019,03,07,13,51,5.70
2019,03,07,13,52,5.70
2019,03,07,13,53,5.60
2019,03,07,13,54,5.60
2019,03,07,13,55,5.60
2019,03,07,13,56,5.60
2019,03,07,13,57,5.60
2019,03,07,13,58,5.60
2019,03,07,13,59,5.60
2019,03,07,14,00,5.50
2019,03,07,14,01,5.60
2019,03,07,14,02,5.60
2019,03,07,14,03,5.60
2019,03,07,14,04,5.60
2019,03,07,14,05,5.50
2019,03,07,14,06,5.50
2019,03,07,14,07,5.40
2019,03,07,14,08,5.30
2019,03,07,14,09,5.30
2019,03,07,14,10,5.20
2019,03,07,14,11,5.20
2019,03,07,14,12,5.20
2019,03,07,14,13,5.20
2019,03,07,14,14,5.20
2019,03,07,14,15,5.10
2019,03,07,14,16,5.10
2019,03,07,14,17,5.10
2019,03,07,14,18,5.10
2019,03,07,14,19,5.10
2019,03,07,14,20,5.10
2019,03,07,14,21,5.10
2019,03,07,14,22,5.00
2019,03,07,14,23,5.00
2019,03,07,14,24,4.90
2019,03,07,14,25,4.90
2019,03,07,14,26,4.90
2019,03,07,14,27,4.90
2019,03,07,14,28,4.90
2019,03,07,14,29,4.90
2019,03,07,14,30,4.80
2019,03,07,14,31,4.80
2019,03,07,14,32,4.80
2019,03,07,14,33,4.80
2019,03,07,14,34,4.80
2019,03,07,14,35,4.80
2019,03,07,14,36,4.80
2019,03,07,14,37,4.80
2019,03,07,14,38,4.80
2019,03,07,14,39,4.80
2019,03,07,14,40,4.80
2019,03,07,14,41,4.80
2019,03,07,14,42,4.80
2019,03,07,14,43,4.80
2019,03,07,14,44,4.80
2019,03,07,14,45,4.80
2019,03,07,14,46,4.80
2019,03,07,14,47,4.80
2019,03,07,14,48,4.80
2019,03,07,14,49,4.80
2019,03,07,14,50,4.80
2019,03,07,14,51,4.90
2019,03,07,14,52,4.90
2019,03,07,14,53,4.90
2019,03,07,14,54,4.90
2019,03,07,14,55,4.90
2019,03,07,14,56,4.90
2019,03,07,14,57,4.90
2019,03,07,14,58,5.00
2019,03,07,14,59,4.90
2019,03,07,15,00,5.00
2019,03,07,15,01,5.00
2019,03,07,15,02,5.00
2019,03,07,15,03,5.00
2019,03,07,15,04,5.00
2019,03,07,15,05,5.00
2019,03,07,15,06,5.10
2019,03,07,15,07,5.10
2019,03,07,15,08,5.10
2019,03,07,15,09,5.10
2019,03,07,15,10,5.20
2019,03,07,15,11,5.10
2019,03,07,15,12,5.10
2019,03,07,15,13,5.10
2019,03,07,15,14,5.20
2019,03,07,15,15,5.20
2019,03,07,15,16,5.20
2019,03,07,15,17,5.20
2019,03,07,15,18,5.20
2019,03,07,15,19,5.20
2019,03,07,15,20,5.20
2019,03,07,15,21,5.20
2019,03,07,15,22,5.20
2019,03,07,15,23,5.20
2019,03,07,15,24,5.20
2019,03,07,15,25,5.20
2019,03,07,15,26,5.20
2019,03,07,15,27,5.20
2019,03,07,15,28,5.20
2019,03,07,15,29,5.20
2019,03,07,15,30,5.10
2019,03,07,15,31,5.10
2019,03,07,15,32,5.10
2019,03,07,15,33,5.10
2019,03,07,15,34,5.10
2019,03,07,15,35,5.10
2019,03,07,15,36,5.10
2019,03,07,15,37,5.10
2019,03,07,15,38,5.10
2019,03,07,15,39,5.10
2019,03,07,15,40,5.10
2019,03,07,15,41,5.10
2019,03,07,15,42,5.10
2019,03,07,15,43,5.10
2019,03,07,15,44,5.10
2019,03,07,15,45,5.10
2019,03,07,15,46,5.10
2019,03,07,15,47,5.10
2019,03,07,15,48,5.10
2019,03,07,15,49,5.10
2019,03,07,15,50,5.20
2019,03,07,15,51,5.20
2019,03,07,15,52,5.20
2019,03,07,15,53,5.20
2019,03,07,15,54,5.30
2019,03,07,15,55,5.20
2019,03,07,15,56,5.20
2019,03,07,15,57,5.20
2019,03,07,15,58,5.20
2019,03,07,15,59,5.20
2019,03,07,16,00,5.20
2019,03,07,16,01,5.10
2019,03,07,16,02,5.10
2019,03,07,16,03,5.10
2019,03,07,16,04,5.10
2019,03,07,16,05,5.10
2019,03,07,16,06,5.10
2019,03,07,16,07,5.00
2019,03,07,16,08,5.00
2019,03,07,16,09,5.00
2019,03,07,16,10,5.00
2019,03,07,16,11,5.00
2019,03,07,16,12,5.00
2019,03,07,16,13,5.00
2019,03,07,16,14,5.00
2019,03,07,16,15,5.00
2019,03,07,16,16,5.00
2019,03,07,16,17,5.00
2019,03,07,16,18,5.00
2019,03,07,16,19,5.00
2019,03,07,16,20,5.00
2019,03,07,16,21,5.00
2019,03,07,16,22,5.00
2019,03,07,16,23,5.00
2019,03,07,16,24,5.00
2019,03,07,16,25,5.00
2019,03,07,16,26,5.00
2019,03,07,16,27,5.00
2019,03,07,16,28,5.00
2019,03,07,16,29,5.00
2019,03,07,16,30,5.00
2019,03,07,16,31,5.00
2019,03,07,16,32,5.00
2019,03,07,16,33,5.10
2019,03,07,16,34,5.00
2019,03,07,16,35,5.00
2019,03,07,16,36,5.00
2019,03,07,16,37,5.00
2019,03,07,16,38,5.00
2019,03,07,16,39,5.00
2019,03,07,16,40,5.00
2019,03,07,16,41,5.00
2019,03,07,16,42,5.00
2019,03,07,16,43,5.00
2019,03,07,16,44,5.00
2019,03,07,16,45,5.00
2019,03,07,16,46,5.00
2019,03,07,16,47,5.00
2019,03,07,16,48,5.00
2019,03,07,16,49,5.00
2019,03,07,16,50,5.00
2019,03,07,16,51,5.00
2019,03,07,16,52,5.00
2019,03,07,16,53,5.10
2019,03,07,16,54,5.10
2019,03,07,16,55,5.10
2019,03,07,16,56,5.10
2019,03,07,16,57,5.10
2019,03,07,16,58,5.10
2019,03,07,16,59,5.10
2019,03,07,17,00,5.10
2019,03,07,17,01,5.10
2019,03,07,17,02,5.10
2019,03,07,17,03,5.10
2019,03,07,17,04,5.10
2019,03,07,17,05,5.10
2019,03,07,17,06,5.10
2019,03,07,17,07,5.10
2019,03,07,17,08,5.10
2019,03,07,17,09,5.10
2019,03,07,17,10,5.10
2019,03,07,17,11,5.10
2019,03,07,17,12,5.10
2019,03,07,17,13,5.10
2019,03,07,17,14,5.10
2019,03,07,17,15,5.10
2019,03,07,17,16,5.10
2019,03,07,17,17,5.10
2019,03,07,17,18,5.10
2019,03,07,17,19,5.10
2019,03,07,17,20,5.10
2019,03,07,17,21,5.10
2019,03,07,17,22,5.10
2019,03,07,17,23,5.10
2019,03,07,17,24,5.10
2019,03,07,17,25,5.10
2019,03,07,17,26,5.00
2019,03,07,17,27,5.00
2019,03,07,17,28,5.00
2019,03,07,17,29,5.00
2019,03,07,17,30,4.90
2019,03,07,17,31,4.90
2019,03,07,17,32,4.90
2019,03,07,17,33,4.90
2019,03,07,17,34,4.80
2019,03,07,17,35,4.80
2019,03,07,17,36,4.80
2019,03,07,17,37,4.80
2019,03,07,17,38,4.70
2019,03,07,17,39,4.70
2019,03,07,17,40,4.70
2019,03,07,17,41,4.60
2019,03,07,17,42,4.60
2019,03,07,17,43,4.60
2019,03,07,17,44,4.60
2019,03,07,17,45,4.50
2019,03,07,17,46,4.50
2019,03,07,17,47,4.40
2019,03,07,17,48,4.40
2019,03,07,17,49,4.40
2019,03,07,17,50,4.30
2019,03,07,17,51,4.30
2019,03,07,17,52,4.30
2019,03,07,17,53,4.30
2019,03,07,17,54,4.20
2019,03,07,17,55,4.20
2019,03,07,17,56,4.20
2019,03,07,17,57,4.20
2019,03,07,17,58,4.10
2019,03,07,17,59,4.10
2019,03,07,18,00,4.10
2019,03,07,18,01,4.00
2019,03,07,18,02,4.00
2019,03,07,18,03,3.90
2019,03,07,18,04,3.90
2019,03,07,18,05,3.90
2019,03,07,18,06,3.80